This is the latest recevied weather packets stored in our database for station/object EA6AMR-10. If no packets are shown the sender has not sent any weather packets the latest 10 day(s).
| Time | Temp. | Humidity | Pressure | Rain* | Wind** | Luminosity | Snow |
|---|---|---|---|---|---|---|---|
| 1777707878 | 24.44° C | 53% | 1022.3 hPa | - | - | - | - |
| 1777706978 | 23.89° C | 54% | 1022.4 hPa | - | - | - | - |
| 1777706077 | 23.33° C | 55% | 1022.4 hPa | - | - | - | - |
| 1777705177 | 22.78° C | 56% | 1022.4 hPa | - | - | - | - |
| 1777704277 | 22.22° C | 57% | 1022.5 hPa | - | - | - | - |
| 1777703377 | 21.67° C | 58% | 1022.4 hPa | - | - | - | - |
| 1777702476 | 21.11° C | 58% | 1022.5 hPa | - | - | - | - |
| 1777701576 | 21.11° C | 58% | 1022.4 hPa | - | - | - | - |
| 1777700676 | 20.56° C | 58% | 1022.1 hPa | - | - | - | - |
| 1777699776 | 19.44° C | 60% | 1022 hPa | - | - | - | - |
| 1777698876 | 18.33° C | 61% | 1021.9 hPa | - | - | - | - |
| 1777697976 | 18.33° C | 62% | 1021.8 hPa | - | - | - | - |
| 1777697075 | 18.33° C | 62% | 1021.9 hPa | - | - | - | - |
| 1777696175 | 18.33° C | 62% | 1021.8 hPa | - | - | - | - |
| 1777695275 | 18.33° C | 62% | 1021.7 hPa | - | - | - | - |
| 1777694375 | 18.89° C | 62% | 1021.7 hPa | - | - | - | - |
| 1777693474 | 18.89° C | 62% | 1021.7 hPa | - | - | - | - |
| 1777692574 | 18.89° C | 62% | 1021.7 hPa | - | - | - | - |
| 1777691674 | 18.89° C | 63% | 1021.8 hPa | - | - | - | - |
| 1777690774 | 18.89° C | 62% | 1021.8 hPa | - | - | - | - |
| 1777689873 | 18.89° C | 62% | 1021.9 hPa | - | - | - | - |
| 1777688978 | 18.89° C | 62% | 1021.8 hPa | - | - | - | - |
| 1777688078 | 18.89° C | 62% | 1021.9 hPa | - | - | - | - |
| 1777687177 | 18.89° C | 62% | 1022 hPa | - | - | - | - |
| 1777686277 | 18.89° C | 62% | 1021.9 hPa | - | - | - | - |
* Rain since midnight (hover to see other rain measurements)
** Current wind speed in m/s (hover to see current wind gust speed)